Regional Weather Roundup
Issued by NWS Upton, NY

Current Version | Previous Version | Graphics & Text | Print | Product List | Glossary Off
Versions: 1 2 3 4 5 6 7 8 9 10 11 12 13 14 15 16 17 18 19 20 21 22 23 24 25 26

000
ASUS41 KOKX 171405
RWROKX

REGIONAL WEATHER ROUNDUP
NATIONAL WEATHER SERVICE NEW YORK NY
1000 AM EDT THU APR 17 2014

NOTE: "FAIR" INDICATES FEW OR NO CLOUDS BELOW 12,000 FEET WITH NO
SIGNIFICANT WEATHER AND/OR OBSTRUCTIONS TO VISIBILITY.

NYZ071-072-176-178-NJZ106-104-171500-
NEW YORK CITY METRO AREA


CITY           SKY/WX    TMP DP  RH WIND       PRES   REMARKS
CENTRAL PARK   SUNNY     41  24  51 E8G18     30.75R
LAGUARDIA APRT MOSUNNY   39  24  55 NE17      30.74R WCI  30
KENNEDY INTL   MOSUNNY   43  21  41 E9G18     30.74R
NEWARK/LIBERTY MOSUNNY   42  21  43 E10G17    30.73R
TETERBORO      SUNNY     42  23  46 E13G20    30.73R
$$

NYZ177-179-078>081-171500-
LONG ISLAND NEW YORK

CITY           SKY/WX    TMP DP  RH WIND       PRES   REMARKS
FARMINGDALE    SUNNY     41  25  53 E10       30.73R
ISLIP          MOSUNNY   42  23  46 VRB6G20   30.71R
SHIRLEY        SUNNY     42  25  50 NE9       30.74R
WESTHAMPTON    SUNNY     42  26  53 NE14G24   30.74R
MONTAUK POINT    N/A     41  26  55 NE13G21   30.75R
$$

NYZ052-065-067-171500-
HUDSON VALLEY

CITY           SKY/WX    TMP DP  RH WIND       PRES   REMARKS
WHITE PLAINS   SUNNY     39  18  42 E10       30.72R WCI  32
NEWBURGH       SUNNY     39  46 100 E8        30.73R WCI  34
MONTGOMERY     SUNNY     39  20  46 VRB6      30.72S WCI  35
POUGHKEEPSIE   SUNNY     40  17  39 E6        30.74R
ALBANY         PTSUNNY   37  19  48 VRB5      30.77R WCI  33
$$

NJZ001-105-106-008-010-013-015-019>022-104-171500-
NEW JERSEY

CITY           SKY/WX    TMP DP  RH WIND       PRES   REMARKS
NEWARK/LIBERTY MOSUNNY   42  21  43 E10G17    30.73R
TETERBORO      SUNNY     42  23  46 E13G20    30.73R
CALDWELL       SUNNY     40  19  43 E8G16     30.73R WCI  34
MORRISTOWN     MOSUNNY   41  18  38 E10       30.73R
SOMERVILLE     SUNNY     43  24  47 E7        30.70R
LINDEN         FAIR      43  18  36 E10       30.74S
SUSSEX           N/A     42  21  43 NE10      30.70S
ANDOVER          N/A     40  16  37 VRB3      30.70R
TRENTON        SUNNY     43  24  47 E8        30.69R
MILLVILLE      MOSUNNY   46  30  53 E13       30.67R
ATLANTIC CITY  PTSUNNY   46  30  53 E18G28    30.69R
WRIGHTSTOWN    SUNNY     44  26  47 E15       30.68R
TOMS RIVER     MOSUNNY   41  28  60 NE13      30.71R
BELMAR         PTSUNNY   41  25  52 E16       30.71R
$$

PAZ047>061-062-071-171500-
EASTERN PENNSYLVANIA

CITY           SKY/WX    TMP DP  RH WIND       PRES   REMARKS
PHILADELPHIA   MOSUNNY   46  29  51 E9        30.71R
ALLENTOWN      SUNNY     43  21  41 E9        30.69R
SCRANTON       SUNNY     41  16  36 S10       30.65R
$$

CTZ002-004>006-009-010-012-RIZ004-006-007-MAZ004-011-015-171500-
SOUTHERN NEW ENGLAND
 IN CT

CITY           SKY/WX    TMP DP  RH WIND       PRES   REMARKS
BRADLEY INTL   MOSUNNY   38  18  44 NE13      30.76S WCI  30
HARTFORD       SUNNY     39  20  46 N10       30.77R WCI  32
DANBURY        SUNNY     37  20  50 NE9       30.74R WCI  30
WTRBRY/OXFORD  MOSUNNY   34  18  51 MISG      30.74
BRIDGEPORT     SUNNY     39  23  52 E12       30.75R WCI  32
MERIDEN        SUNNY     40  21  46 NE10      30.76R WCI  33
NEW HAVEN      MOSUNNY   41  20  43 E9        30.75R
CHESTER        FAIR      37  19  48 NE12      30.74R WCI  30
GROTON         SUNNY     41  23  48 NE14      30.75R
WILLIMANTIC    SUNNY     38  20  48 E15       30.76R WCI  29

 IN RI

CITY           SKY/WX    TMP DP  RH WIND       PRES   REMARKS
PROVIDENCE     MOSUNNY   40  21  46 NE16G25   30.77R WCI  31
BLOCK ISLAND   SUNNY     39  25  56 NE16G24   30.73R WCI  30
WESTERLY       SUNNY     40  22  48 NE15G21   30.75R WCI  32

 IN MA

CITY           SKY/WX    TMP DP  RH WIND       PRES   REMARKS
BOSTON         MOSUNNY   37  21  52 NE20      30.81R WCI  27
WORCESTER      SUNNY     33  19  56 E10G20    30.74R WCI  25
WESTFIELD      SUNNY     37  18  46 NE7G20    30.77R WCI  32
PROVINCETOWN   MOSUNNY   37  25  60 MISG      30.79R
NANTUCKET      CLOUDY    39  26  59 NE20G30   30.72R WCI  29
$$

ANZ330-335-338-340-345-350-353-355-171500-
COASTAL MARINE OBSERVATIONS


STATION/POSITION TIME  SKY/WX   TEMP    WIND        PRES    VSBY  WAVE
                                AIR SEA DIR/SP/G                  HT/PER
                 (UTC)          (F)     (DEG/KT/KT) (MB)    (MI)  (FT/S)
NY HARB ENTRANCE 1400            39 42   70/ 17/ 21 1039.9
4S FIRE IS       1300               43                N/A           6/ 6
23SW MTP         1400            38 42   60/ 21/ 27 1039.4          7/ 6
HUDSON CANYON    1300            41 45   60/ 21/ 27 1037.0          9/ 7
EXECUTION ROCKS  1400            38 42   60/ 17/ 23   N/A
WESTERN LI SOUND 1400            37      70/ 16/ 19   N/A           3/ 4
CENTRAL LI SOUND 1300            36 41   80/ 17/ 19   N/A           3/ 4
EASTERN LI SOUND NOT AVBL
ROBBINS REEF     1400            39      50/  8/ 11   N/A
$$


>>>>>>>>>>>>>>>>>>>>>>>>>>>> KEY <<<<<<<<<<<<<<<<<<<<<<<<<<<
>                                                          <
>     SKY/WX - SKY CONDITION/PRESENT WEATHER               <
>     TMP    - TEMPERATURE IN FAHRENHEIT                   <
>     DP     - DEWPOINT IN FAHRENHEIT                      <
>     RH     - RELATIVE HUMIDITY IN PERCENT                <
>     WIND   - DIRECTION AND SPEED IN MPH                  <
>     PRES   - MEAN SEA LEVEL PRESSURE IN INCHES OF HG     <
>     WCI    - WIND CHILL INDEX                            <
>     VSB    - VISIBILITY IN MILES                         <
>     HX     - HEAT INDEX                                  <
>     TC     - TEMPERATURE IN CELSIUS                      <
>     VRB    - VARIABLE WIND DIRECTION                     <
>                                                          <
>>>>>>>>>>>>>>>>>>>>>>>>>>>> KEY <<<<<<<<<<<<<<<<<<<<<<<<<<<





USA.gov is the U.S. government's official web portal to all federal, state and local government web resources and services.